www.pogodaiklimat.ru
Время
(UTC), дата
13 30.11
14 30.11
15 30.11
16 30.11
17 30.11
18 30.11
19 30.11
20 30.11
21 30.11
22 30.11
23 30.11
00 1.12
01 1.12
02 1.12
03 1.12
04 1.12
05 1.12
06 1.12
07 1.12
08 1.12
09 1.12
10 1.12
11 1.12
12 1.12
13 1.12
14 1.12
15 1.12
16 1.12
17 1.12
18 1.12
19 1.12
20 1.12
21 1.12
22 1.12
23 1.12
00 2.12
01 2.12
02 2.12
03 2.12
04 2.12
05 2.12
06 2.12
07 2.12
08 2.12
09 2.12
10 2.12
11 2.12
12 2.12
13 2.12
14 2.12
15 2.12
16 2.12
17 2.12
18 2.12
19 2.12
20 2.12
21 2.12
22 2.12
23 2.12
00 3.12
01 3.12
02 3.12
03 3.12
04 3.12
05 3.12
06 3.12
07 3.12
08 3.12
09 3.12
10 3.12
11 3.12
12 3.12
13 3.12
14 3.12
15 3.12
16 3.12
17 3.12
18 3.12
19 3.12
20 3.12
21 3.12
22 3.12
23 3.12
00 4.12
01 4.12
02 4.12
03 4.12
04 4.12
05 4.12
06 4.12
07 4.12
08 4.12
09 4.12
10 4.12
11 4.12
12 4.12
13 4.12
14 4.12
15 4.12
16 4.12
17 4.12
18 4.12
19 4.12
20 4.12
21 4.12
22 4.12
23 4.12
00 5.12
01 5.12
02 5.12
03 5.12
04 5.12
05 5.12
06 5.12
07 5.12
08 5.12
09 5.12
10 5.12
11 5.12
12 5.12
13 5.12
14 5.12
15 5.12
16 5.12
17 5.12
18 5.12
19 5.12
20 5.12
21 5.12
22 5.12
23 5.12
00 6.12
01 6.12
02 6.12
03 6.12
04 6.12
05 6.12
06 6.12
07 6.12
08 6.12
09 6.12
10 6.12
11 6.12
12 6.12
13 6.12
14 6.12
15 6.12
16 6.12
17 6.12
18 6.12
19 6.12
20 6.12
21 6.12
22 6.12
23 6.12
00 7.12
01 7.12
02 7.12
03 7.12
04 7.12
05 7.12
06 7.12
07 7.12
08 7.12
09 7.12
10 7.12
11 7.12
Ветер
(напр.,м/с)
Видим. Явления Облачность Т
(С)
Тd
(С)
f
(%)
Тe
(С)
Тes
(С)
Комфортность P
(гПа)
Po
(гПа)
Тmin
(С)
Tmax
(С)
R
(мм)
R24
(мм)
S
(см)
СВ 2 16 км 1/1 300 м
[]
+6.9 +3.6 79 +5 +6 тепло 1023.7 1009.7
СВ 3 25 км ясно +6.3 +2.5 77 +3 +4 по сезону 1023.3 1009.2
В 3-4
{4}
16 км 1/1 1170 м
[]
+5.0 +2.4 83 +2 +2 по сезону 1023.1 1008.9
СВ 3 11 км ясно +2.8 +1.3 90 -1 -1 по сезону 1023.3 1009.2
В 4 11 км ясно +2.4 +1.5 94 -3 -3 прохладно 1022.9 1008.7
В 3-10
{10}
11 км ясно +2.3 +1.2 92 -2 -2 по сезону 1022.9 1008.7 +7.3
В 3 7000 м дымка 10/10
[]
+1.7 +1.0 95 -3 -3 прохладно 1023.2 1009.0
В 3 5000 м дымка 10/10
[]
+1.1 +0.7 97 -4 -4 прохладно 1023.4 1009.0
В 3-4
{10}
400 м туман {дымка} 10/6 <50 м
[]
+0.7 +0.5 99 -4 -4 прохладно 1023.0 1008.8
В 3-4
{5}
200 м снежные зёрна {ливн. осадки, дымка} ?/? +0.5 +0.5 100 -4 -4 прохладно 1021.9 1007.8
В 3-5
{6}
300 м туман {ливн. осадки, дымка} ?/? +0.5 +0.5 100 -4 -4 прохладно 1021.7 1007.5
В 3-5
{10}
1000 м в посл. час туман {ливн. осадки, дымка} 10/10 30 м
[]
+0.6 +0.6 100 -4 -4 прохладно 1021.6 1007.4
СВ 5-7
{7}
300 м туман 10/10 50 м
[]
+0.4 +0.4 100 -6 -6 холодно 1020.6 1006.6
СВ 3-4
{7}
2200 м в посл. час туман 10/10 100 м
[]
+0.2 +0.1 99 -5 -5 холодно 1020.9 1006.8
СВ 5-6
{7}
2400 м дымка {туман} 10/9 60 м
[]
+0.1 -0.1 99 -6 -6 холодно 1020.1 1006.0
СВ 6 6000 м дымка 10/10
[]
0.0 -0.5 96 -7 -7 холодно 1019.3 1005.1
СВ 5 8000 м дымка 10/10
[]
0.0 -0.6 96 -6 -6 холодно 1019.3 1005.0
СВ 5-7
{8}
11 км {туман, дымка} 10 баллов +0.2 -0.6 94 -6 -6 холодно 1018.6 1004.4 -0.1 0.0
СВ 5 18 км 10/10
[]
+0.4 -0.6 93 -6 -6 холодно 1018.8 1004.6
СВ 6 24 км 10/10
[]
+0.6 -0.7 91 -6 -6 холодно 1018.9 1004.8
СВ 7-9
{9}
30 км 10 баллов +1.1 -0.6 88 -6 -6 холодно 1019.3 1005.1
СВ 6 35 км 10/10
[]
+1.9 -0.3 85 -4 -4 прохладно 1019.5 1005.3
СВ 4 35 км 10/10
[]
+2.9 -0.1 81 -2 -2 по сезону 1020.1 1005.9
СВ 7-8
{9}
45 км 10 баллов +3.0 -0.5 78 -3 -3 прохладно 1019.6 1005.4
СВ 6 40 км 10/10
[]
+3.3 -0.4 77 -2 -2 по сезону 1019.1 1004.9
СВ 5 45 км 10/10
[]
+3.3 -0.2 78 -2 -2 по сезону 1019.1 1004.9
СВ 5-7
{9}
40 км 10/10
[]
+3.1 -0.5 77 -2 -2 по сезону 1019.2 1005.0
СВ 4 35 км 10/10
[]
+2.6 -0.5 80 -2 -2 по сезону 1019.6 1005.4
С 5 28 км 10/10
[]
+2.4 -0.7 80 -3 -3 прохладно 1020.4 1006.1
С 4-5
{9}
18 км 10/10
[]
+1.7 -0.7 84 -3 -3 прохладно 1021.2 1007.0 +3.5
С 4 15 км 10/10
[]
+1.3 -0.4 88 -4 -4 прохладно 1021.7 1007.4
С 4 14 км 10/10
[]
+1.0 -0.5 90 -4 -4 прохладно 1022.1 1007.7
С 4-6
{6}
13 км 10/0
[]
+1.0 -0.4 90 -4 -4 прохладно 1022.7 1008.4
С 3-4
{5}
7000 м дымка 1/1 1000 м
[]
-0.5 -1.1 96 -5 -5 холодно 1023.4 1009.0
С 2-2
{4}
7000 м дымка 10/10 1000 м
[]
-0.3 -0.7 97 -4 -4 прохладно 1023.7 1009.3
СЗ 2-2
{6}
10 км 9/9 1300 м
[]
-0.6 -1.1 96 -5 -5 холодно 1023.8 1009.4
СЗ 1-1
{3}
7000 м дымка 1/1 1000 м
[]
-1.0 -1.2 99 -3 -3 прохладно 1024.1 1009.7
З 1-1
{2}
6000 м дымка 8/8 600 м
[]
-1.7 -2.2 96 -4 -4 прохладно 1024.9 1010.6
ЮЗ 2-3
{3}
3600 м дымка 10/10 660 м
[]
-1.7 -1.9 99 -6 -6 холодно 1025.0 1010.7
ЮЗ 3 3400 м дымка 10/10 100 м
[]
-1.9 -2.2 98 -7 -7 холодно 1025.4 1011.0
ЮЗ 3 3000 м дымка 3/3 100 м
[]
-2.2 -2.4 99 -8 -8 очень
холодно
1025.8 1011.5
Ю 4-4
{5}
2600 м дымка 10/10 30 м
[]
-1.2 -1.4 99 -7 -7 холодно 1026.1 1011.8 -2.7
Ю 5 1700 м дымка 10/10 50 м
[]
-0.6 -0.7 99 -7 -7 холодно 1026.5 1012.1
Ю 4 200 м переохл. туман {дымка} ?/? -0.3 -0.3 100 -6 -6 холодно 1027.0 1012.7
Ю 4-5
{6}
1100 м в посл. час туман {дымка} 10/10 30 м
[]
+0.4 +0.4 100 -5 -5 холодно 1027.5 1013.2
Ю 4 1700 м дымка {туман} 10/6 600 м
[]
+1.2 +1.0 99 -4 -4 прохладно 1028.4 1013.9
ЮЗ 4 4300 м дымка {туман} 10/10 1000 м
[]
+2.8 +2.1 95 -2 -2 по сезону 1028.1 1013.8
ЮЗ 4-5
{6}
6000 м дымка {туман} 10/10 600 м
[]
+3.8 +2.8 93 -1 -1 по сезону 1028.2 1013.8
ЮЗ 4 6000 м слаб. ливневой дождь 10/9 600 м
[]
+4.1 +3.4 95 -1 -1 по сезону 1028.0 1013.7
ЮЗ 3 5000 м в посл. час дождь {ливн. осадки} 9/9 1000 м
[]
+4.4 +3.8 96 +1 +1 по сезону 1027.8 1013.5
ЮЗ 3-4
{5}
5000 м дымка {ливн. осадки} 10/10 870 м
[]
+4.5 +4.0 97 +1 +1 по сезону 1028.2 1013.9
ЮЗ 3 1600 м дымка {ливн. осадки} 8/8 1000 м
[]
+3.3 +3.1 99 -1 -1 по сезону 1028.4 1014.1
Ю 4 2300 м дымка {ливн. осадки} 10/10 1000 м
[]
+3.7 +3.5 99 -1 -1 по сезону 1028.6 1014.2
Ю 3-4
{5}
2100 м дымка {ливн. осадки} 10/10 1200 м
[]
+3.6 +3.4 99 -1 -1 по сезону 1028.8 1014.5 +4.6
ЮЗ 3 5000 м дымка 10/8 1000 м
[]
+4.0 +3.8 99 0 0 по сезону 1029.2 1014.9
ЮЗ 2 5000 м дымка 10/6 600 м
[]
+4.5 +4.2 98 +2 +2 по сезону 1029.6 1015.2
ЮЗ 2-3
{4}
3400 м ливневой дождь 10/10 90 м
[]
+4.5 +4.3 99 +2 +2 по сезону 1029.6 1015.3 0.1
ЮЗ 2-2
{3}
900 м туман {ливн. осадки} 10/9 100 м
[]
+4.5 +4.5 100 +2 +2 по сезону 1029.8 1015.5 0.7
ЮЗ 2-3
{3}
900 м туман {ливн. осадки} 10/10 50 м
[]
+4.3 +4.3 100 +1 +1 по сезону 1029.8 1015.6 1
ЮЗ 2-3
{4}
1000 м в посл. час туман {ливн. осадки} 10/10 <50 м
[]
+4.8 +4.8 100 +2 +2 по сезону 1029.6 1015.4
З 1-2
{3}
1900 м дымка 10/10 50 м
[]
+5.0 +5.0 100 +3 +3 по сезону 1029.8 1015.6
З 1-2
{3}
1100 м дымка 10/10 50 м
[]
+4.8 +4.8 100 +3 +3 по сезону 1029.8 1015.6
ЮЗ 1-2
{3}
100 м туман {дымка} 10/10 <50 м
[]
+4.4 +4.4 100 +3 +3 по сезону 1029.7 1015.5
ЮЗ 2 100 м туман {дымка} ?/? +4.8 +4.8 100 +2 +2 по сезону 1029.6 1015.4
ЮЗ 3 300 м туман {дымка} ?/? +4.9 +4.9 100 +1 +1 по сезону 1029.6 1015.3
ЮЗ 2-3
{3}
1600 м в посл. час туман {дымка} 10/10 30 м
[]
+4.9 +4.9 100 +2 +2 по сезону 1029.5 1015.3 +3.5 1.9
Ю 3 1800 м дымка 10/10 50 м
[]
+4.9 +4.8 99 +1 +1 по сезону 1029.9 1015.6
ЮЗ 3 1700 м в посл. час туман {дымка} 10/10 100 м
[]
+4.9 +4.7 99 +1 +1 по сезону 1029.8 1015.6
ЮЗ 2-4
{6}
3000 м дымка {туман} 10/10 90 м
[]
+5.0 +4.6 97 +2 +2 по сезону 1030.2 1016.0
ЮЗ 2 2400 м дымка {туман} 10/10 50 м
[]
+5.1 +4.7 97 +2 +2 по сезону 1030.1 1015.9
ЮЗ 3 1900 м дымка {туман} 10/10 100 м
[]
+5.1 +4.6 97 +1 +1 по сезону 1029.7 1015.5
ЮЗ 3-4
{6}
1400 м дымка {туман} 10/10 60 м
[]
+5.0 +4.9 99 +1 +1 по сезону 1029.0 1014.9
ЮЗ 2 2300 м дымка 10/10 100 м
[]
+5.1 +4.6 97 +2 +2 по сезону 1028.4 1014.4
З 2 1900 м дымка 10/10 100 м
[]
+4.8 +4.5 98 +2 +2 по сезону 1028.0 1013.9
ЮЗ 1-2
{4}
2300 м дымка 10/10 60 м
[]
+4.3 +4.2 99 +3 +3 по сезону 1028.2 1014.0
Ю 2 500 м туман {дымка} 3/3 50 м
[]
+2.9 +2.7 99 -0 -0 по сезону 1028.0 1013.8
Ю 2 <100 м туман {дымка} ?/? +3.2 +3.2 100 -0 -0 по сезону 1027.9 1013.7
Ю 1-2
{4}
<100 м туман {ливн. осадки, дымка} ?/? +2.5 +2.5 100 +1 +1 по сезону 1027.8 1013.6 +5.5
Ю 2 200 м туман 3/3
[]
+1.0 +1.0 100 -3 -3 прохладно 1027.5 1013.4
Ю 2 6000 м в посл. час туман ясно +2.0 +2.0 100 -2 -2 по сезону 1027.0 1012.9
Ю 2-2
{3}
7000 м дымка {туман} ясно +1.8 +1.5 98 -2 -2 по сезону 1026.9 1012.7
Ю 2-2
{2}
7000 м дымка {туман} ясно +1.8 +1.6 99 -2 -2 по сезону 1026.6 1012.4
Ю 2-2
{2}
7000 м дымка {туман} ясно +1.5 +1.3 99 -2 -2 по сезону 1026.6 1012.4
ЮВ 1-1
{3}
9000 м дымка {туман} ясно +0.4 +0.3 99 -2 -2 по сезону 1025.7 1011.6
ЮВ 1-1
{1}
9000 м дымка ясно +0.6 +0.6 100 -2 -2 по сезону 1025.1 1010.9
В 1-1
{1}
9000 м дымка ясно +0.3 +0.1 99 -2 -2 по сезону 1024.9 1010.7
ЮВ 1-1
{1}
12 км ясно -0.2 -0.3 99 -2 -2 по сезону 1024.3 1010.1
ЮВ 1 12 км ясно -0.3 -0.4 99 -3 -3 прохладно 1023.9 1009.8
ЮВ 1 11 км ясно -0.1 -0.1 100 -2 -2 по сезону 1023.9 1009.6
В 1-1
{2}
8000 м дымка ясно -0.9 -0.9 100 -3 -3 прохладно 1023.9 1009.6 -1.7
В 1 9000 м дымка ясно -1.2 -1.2 100 -4 -4 прохладно 1023.6 1009.3
В 1 8000 м дымка ясно -1.3 -1.5 99 -4 -4 прохладно 1023.5 1009.2
В 1-2
{2}
11 км ясно +0.9 +0.8 99 -1 -1 по сезону 1023.5 1009.2
В 1 19 км ясно +3.4 +1.6 88 +2 +3 по сезону 1023.2 1009.0
В 2 12 км ясно +4.0 +2.3 89 +1 +3 по сезону 1022.4 1008.3
СЗ 2-3
{7}
13 км ясно +3.6 +2.7 94 +1 +2 по сезону 1021.6 1007.5 0.0
СВ 3 17 км ясно +4.9 +2.8 86 +1 +2 по сезону 1020.8 1006.8
СВ 4 12 км ясно +4.9 +2.6 85 +1 +1 по сезону 1020.4 1006.3
СВ 1-3
{6}
13 км ясно +4.5 +2.6 87 +3 +3 по сезону 1020.8 1006.5
СВ 3 11 км ясно +1.4 +0.7 95 -3 -3 прохладно 1020.6 1006.4
СВ 1 10 км ясно +2.0 +1.2 94 0 0 по сезону 1020.5 1006.3
СВ 3-3
{7}
9000 м дымка ясно 0.0 -0.9 94 -5 -5 холодно 1020.2 1006.0 +5.0
В 2 6000 м дымка ясно -0.7 -1.2 96 -5 -5 холодно 1020.6 1006.2
Ю 2 1900 м дымка 5/5 <50 м
[]
-2.4 -2.8 97 -7 -7 холодно 1021.2 1006.8
Ю 1-1
{3}
<100 м переохл. туман {дымка} ?/? -1.5 -1.7 99 -4 -4 прохладно 1020.8 1006.5
Ю 2-2
{3}
<100 м переохл. туман {дымка} ?/? -1.2 -1.2 100 -5 -5 холодно 1020.5 1006.3
З 1-2
{2}
<100 м переохл. туман {дымка} ?/? -0.8 -0.8 100 -3 -3 прохладно 1021.0 1006.8
Ю 2-4
{4}
<100 м переохл. туман {дымка} ?/? -1.5 -1.5 100 -6 -6 холодно 1020.6 1006.4
ЮЗ 3-3
{4}
1500 м в посл. час туман ясно -2.1 -2.1 100 -7 -7 холодно 1020.8 1006.7
Ю 4-5
{5}
11 км {туман} ясно -0.9 -1.2 98 -7 -7 холодно 1020.7 1006.4
Ю 4-5
{6}
14 км ясно -1.0 -1.6 96 -7 -7 холодно 1021.2 1007.0
Ю 5 12 км ясно -0.8 -1.6 94 -7 -7 холодно 1021.3 1007.0
Ю 4 10 км ясно -1.2 -1.9 95 -7 -7 холодно 1021.5 1007.3
Ю 4-6
{6}
10 км ясно -0.8 -1.8 93 -7 -7 холодно 1021.1 1006.9 -2.5
Ю 3 8000 м дымка 6/6 600 м
[]
-1.7 -2.6 94 -7 -7 холодно 1022.4 1007.9
Ю 3 8000 м дымка 1/1 200 м
[]
-0.7 -1.6 94 -6 -6 холодно 1022.9 1008.6
Ю 4-5
{6}
8000 м дымка ясно +0.1 -1.0 92 -5 -5 холодно 1022.7 1008.4
Ю 4 8000 м дымка ясно +1.3 -0.5 88 -4 -3 прохладно 1023.0 1008.8
Ю 5 9000 м дымка 10/10
[]
+2.7 +0.2 84 -3 -3 прохладно 1021.9 1007.8
ЮЗ 5-8
{8}
12 км 5 баллов +3.9 +0.4 78 -1 -1 по сезону 1021.4 1007.2 0.0
ЮЗ 4 9000 м дымка 10/10 300 м
[]
+3.7 +1.4 85 -1 -1 по сезону 1021.4 1007.2
З 4 7000 м дымка 10/10 300 м
[]
+3.1 +1.3 88 -2 -2 по сезону 1021.5 1007.3
ЮЗ 5-8
{8}
8000 м дымка 10/0
[]
+2.0 +0.2 88 -4 -4 прохладно 1021.5 1007.2
ЮЗ 5 5000 м дымка 10/10
[]
+1.0 -0.2 92 -5 -5 холодно 1021.4 1007.0
ЮЗ 6 3400 м дымка 10/10
[]
+0.5 -0.3 94 -6 -6 холодно 1021.1 1006.8
ЮЗ 6-9
{9}
4900 м дымка 10 баллов +0.6 -0.3 94 -6 -6 холодно 1021.0 1006.8 +4.2 0.0
Ю 6 5000 м дымка 10/10 300 м
[]
+1.5 +0.4 92 -5 -5 холодно 1020.2 1005.9
Ю 7 6000 м дымка 10/10 300 м
[]
+1.8 +0.5 91 -5 -5 холодно 1019.6 1005.4
Ю 7-10
{10}
7000 м дымка 10/9 270 м
[]
+1.2 -0.1 91 -6 -6 холодно 1019.4 1005.2
ЮЗ 6-9
{11}
7000 м дымка 10/10
[]
+0.4 -0.8 92 -6 -6 холодно 1019.3 1005.1
Ю 7-10
{10}
8000 м дымка 10/10
[]
-0.1 -1.6 90 -7 -7 холодно 1018.7 1004.6
Ю 7-9
{11}
8000 м дымка 10 баллов +0.1 -1.3 90 -7 -7 холодно 1017.9 1003.8
Ю 8-11
{11}
9000 м дымка 10/10
[]
-0.2 -1.8 89 -8 -8 очень
холодно
1016.8 1002.8
Ю 7-10
{12}
10 км 10/10 2000 м
[]
+0.3 -2.1 84 -7 -7 холодно 1016.4 1002.4
Ю 7-11
{12}
12 км 10/10 2000 м
[]
+0.9 -1.9 82 -6 -6 холодно 1015.7 1001.7
ЮЗ 8 13 км 10/10 1500 м
[]
+1.6 -1.1 82 -5 -5 холодно 1015.2 1001.2
ЮЗ 9 16 км в посл. час дождь 10/10 1500 м
[]
+1.9 -1.0 81 -5 -5 холодно 1014.7 1000.7
ЮЗ 9-13
{13}
22 км в посл. час дождь 10/10 900 м
[]
+2.5 -0.9 78 -4 -4 прохладно 1014.4 1000.4 -0.3
Ю 9 28 км 10/10 600 м
[]
+3.2 -0.5 77 -3 -3 прохладно 1014.3 1000.2
ЮЗ 7 30 км 10/10 600 м
[]
+3.5 -0.1 77 -2 -2 по сезону 1014.2 1000.2
Ю 7-11
{13}
10 км слаб. ливневой дождь {морось} 10/10 540 м
[]
+3.3 +1.3 87 -3 -3 прохладно 1013.9 999.9 0.3
Ю 8 10 км слаб. дождь {морось} 10/10 300 м
[]
+4.0 +2.7 91 -2 -2 по сезону 1013.4 999.3 0.5
Ю 9 10 км слаб. дождь {морось} 10/10 300 м
[]
+4.5 +3.4 93 -2 -2 по сезону 1012.0 998.0 0.7
Ю 8-11
{13}
13 км морось {ливн. осадки, дождь} 10/10 480 м
[]
+5.2 +3.9 91 -1 -1 по сезону 1011.1 997.2 0.9
ЮЗ 9 8000 м слаб. ливневой дождь 10/10 300 м
[]
+5.8 +4.3 90 -0 -0 по сезону 1010.2 996.3 0.2
ЮЗ 7 9000 м слаб. дождь 10/10 300 м
[]
+5.7 +4.7 93 0 0 по сезону 1009.2 995.3 0.6
ЮЗ 8-12
{14}
11 км слаб. морось {дождь} 10/10 360 м
[]
+5.8 +4.8 93 0 0 по сезону 1008.5 994.7 0.3
ЮЗ 8 3600 м слаб. ливневой дождь 10/9 300 м
[]
+5.7 +5.0 95 -0 -0 по сезону 1007.8 993.9 0.3
ЮЗ 9 7000 м слаб. дождь {морось} 10/10 300 м
[]
+5.5 +5.1 97 -1 -1 по сезону 1007.5 993.6 1
ЮЗ 8-12
{15}
4300 м слаб. дождь {морось} 10 баллов +5.5 +5.0 97 -0 -0 по сезону 1007.3 993.4 +6.0 0.8
ЮЗ 8 5000 м слаб. ливневой дождь 10/8 200 м
[]
+5.8 +5.3 97 0 0 по сезону 1007.2 993.3 0.5
ЮЗ 10 35 км в посл. час дождь {ливн. осадки} 10/10 300 м
[]
+6.7 +5.6 93 +1 +1 по сезону 1006.6 992.9
ЮЗ 10-15
{16}
17 км слаб. ливневой дождь 10/10 330 м
[]
+7.3 +6.1 92 +2 +2 по сезону 1006.5 992.8
ЮЗ 8-14
{15}
6000 м морось {ливн. осадки, дождь} 10/10 300 м
[]
+7.5 +6.8 95 +2 +2 по сезону 1006.6 992.8 0.6
ЮЗ 9-12
{14}
10 км слаб. ливневой дождь 10/8 300 м
[]
+7.8 +7.0 95 +3 +3 по сезону 1007.3 993.3 0.2
ЮЗ 6-8
{16}
15 км в посл. час дождь {ливн. осадки} 10/10 210 м
[]
+8.2 +7.7 97 +4 +4 по сезону 1007.9 994.0 0.3
ЮЗ 6-9
{10}
27 км 10/10 300 м
[]
+8.8 +7.5 92 +5 +5 тепло 1008.4 994.5
З 5-9
{10}
25 км в посл. час морось 10/9 600 м
[]
+8.8 +7.3 90 +5 +5 тепло 1009.3 995.5 0.1
З 5-8
{10}
16 км в посл. час морось 10/10 480 м
[]
+8.6 +7.2 91 +5 +5 тепло 1010.1 996.3
З 5 22 км 10/10 1000 м
[]
+8.5 +6.9 90 +5 +5 тепло 1011.0 997.2
ЮЗ 5 20 км 10/10 1000 м
[]
+8.4 +6.8 90 +5 +5 тепло 1011.5 997.7
ЮЗ 4-7
{10}
19 км 10 баллов +8.2 +6.7 90 +5 +5 тепло 1012.4 998.6 +5.5 2 7.5
ЮЗ 4 16 км 10/10 1000 м
[]
+8.1 +6.5 90 +5 +5 тепло 1012.9 999.1
ЮЗ 5 17 км 10/10 1000 м
[]
+8.1 +6.3 88 +4 +4 по сезону 1013.7 999.8
ЮЗ 4 20 км 10/10 1000 м
[]
+8.4 +6.3 87 +5 +5 тепло 1014.2 1000.3
ЮЗ 5 22 км 10/10 1000 м
[]
+8.7 +5.9 83 +5 +5 тепло 1014.7 1000.9
ЮЗ 4 26 км 10/10 1000 м
[]
+8.7 +5.7 81 +6 +6 тепло 1014.8 1001.1
Местоположение метеостанции Маастрихт (Нидерланды): широта 50.92 долгота 5.78 высота над уровнем моря 116 м.
В архиве по умолчанию представлена погода в Маастрихте за последнюю неделю. Архивные данные за месяц целиком и за предыдущие месяцы, начиная с января 2011 года, Вы можете получить, выбрав интересующий диапазон дат из раскрывающегося списка и нажав кнопку "Найти!".
*Определитесь, кто Вы:
Внимание! Время в таблицах - всемирное. Для получения местного времени необходимо прибавить поправку, которая равна 1 ч.
Смотрите также архив погоды в соседних городах и на ближайших метеорологических станциях:
Партнеры нашего сайта:      
Пояснения к столбцам:
  • Ветер - указаны скорость ветра в м/с - средняя за 10 мин, порывы в срок и между сроками (в фигурных скобках) и направление, откуда дует ветер: С - северный,
  • СВ - северо-восточный, В - восточный, ЮВ - юго-восточный, Ю - южный, ЮЗ - юго-западный, З - западный, СЗ - северо-западный.
  • Видимость - горизонтальная дальность видимости в метрах или километрах. При видимости от 1 до 10 км при отсутствии осадков обычно наблюдается дымка, при ухудшении видимости до 1 км и менее - туман. В сухую погоду видимость может ухудшаться дымом, пылью или мглою.
  • Явления - указаны атмосферные явления, наблюдавшиеся в срок или в последний час перед сроком; фигурными скобками обозначены явления, наблюдавшиеся между сроками (за 1-3 часа до срока); квадратными скобками обозначены град или гололедные отложения с указанием их диаметра в мм.
  • Облачность - указаны через наклонную черту общая и нижняя облачность в баллах и высота нижней границы облаков в метрах; квадратными скобками обозначены формы облаков: Ci - перистые, Cs - перисто-слоистые, Cc - перисто-кучевые, Ac - высококучевые, As - высокослоистые, Sc - слоисто-кучевые, Ns - слоисто-дождевые, Cu - кучевые, Cb - кучево-дождевые. Подробнее классификацию облаков см. в Атласе облаков (PDF).
  • T - Температура воздуха - температура, измеренная на высоте 2 м над землей.
  • Td - Температура точки росы - температура, при понижении до которой содержащийся в воздухе водяной пар достигнет насыщения.
  • f - Относительная влажность воздуха - влажноcть воздуха, измеренная на высоте 2 м над землей.
  • Te - Эффективная температура - температура, которую ощущает одетый по сезону человек в тени. Характеристика душности погоды. При расчете учитывается влияние влажности воздуха и скорости ветра на теплоощущения человека.
  • Tes - Эффективная температура на солнце - температура, которую ощущает человек, с поправкой на солнечный нагрев. Характеристика знойности погоды. Зависит от высоты солнца над горизонтом, облачности и скорости ветра. Ночью, в пасмурную погоду, а также при ветре 12 м/с и более поправка равна нулю.
  • P - Атмосферное давление - приведенное к уровню моря атмосферное давление.
  • Po - Атмосферное давление - измеренное на уровне метеостанции атмосферное давление.
  • Tmin - Минимальная температура - минимум температуры воздуха на высоте 2 м над землей.
  • Tmax - Максимальная температура - максимум температуры воздуха на высоте 2 м над землей.
  • R - Количество осадков - Количество выпавших осадков за период времени, мм. При наведении курсора мыши на число - период времени, за который выпало указанное количество осадков.
  • R24 - Количество осадков - Количество выпавших осадков за 24 часа, мм.
  • S - Снежный покров - Высота снежного покрова, см. При наведении курсора мыши на число - состояние снежного покрова и степень покрытия местности в баллах.